GFSGBSN_850_dewp_276.txt.gz
Dewpoint
4 4 4 4 3 3 2 1 -3 -10 -12 -0 6 4 2 2 1 1 0 -0 -1 -1 -2 -3 -3 -4 -5 -3 -12 -8 -7 -3 -3 -4 -2 -3 -3 -2 -3 -2 -2 -2 -3 -2 -3 -3 -4
4 4 4 4 3 3 2 -1 -8 -12 -4 7 6 3 2 2 1 0 0 -0 -1 -2 -1 -2 -2 -3 -3 -3 -5 -9 -13 -4 -3 -2 -3 -3 -2 -1 -3 -2 -2 -1 -2 -3 -5 -7 -4
5 5 5 4 3 3 1 -5 -11 -3 7 6 4 3 1 -2 -5 -7 -6 -6 -7 -6 -5 -3 -3 -5 -3 -2 -3 -3 -3 -7 -4 -6 -4 -4 -3 -3 -2 -4 -1 -1 -3 -7 -10 -6 -7
5 5 5 4 4 2 -2 -7 0 6 5 5 4 2 1 -1 -3 -10 -13 -12 -13 -13 -11 -7 -11 -11 -4 -4 -4 -2 -2 -1 -3 -4 -5 -2 -2 -3 -3 -3 -4 -5 -7 -6 -10 -8 -7
6 5 5 5 3 0 -5 1 7 6 6 5 4 3 0 -3 -6 -13 -21 -21 -22 -20 -17 -18 -20 -11 -6 -6 -0 -2 -1 -1 -3 -4 -6 -4 -2 -4 -4 -6 -7 -8 -6 -7 -6 -8 -6
6 6 6 4 2 -3 -2 8 7 6 6 3 1 -2 -7 -10 -13 -23 -27 -28 -27 -25 -19 -19 -19 -13 -6 -2 -4 -13 0 -2 -2 -3 -3 -3 -4 -4 -5 -5 -2 -2 -3 -3 -3 -4 -4
7 7 6 4 -1 -5 7 7 7 6 4 -1 -7 -11 -15 -21 -27 -30 -30 -29 -9 -4 -9 -2 -1 -2 -5 -8 -16 -5 -10 -4 -2 -3 -3 -2 -3 -2 -2 -3 -3 -2 -2 -1 -2 -3 -2
7 7 5 2 -2 2 8 7 7 4 -1 -5 -11 -16 -22 -28 -31 -30 -29 -23 -16 -7 -7 -9 -7 -4 -5 -5 -7 -1 2 -6 -2 -2 -3 -2 -3 -4 -3 -3 -2 -2 -1 -1 -2 -4 -2
6 5 4 2 2 8 7 7 5 1 -7 -14 -19 -24 -29 -31 -28 -19 -24 -19 -18 -17 -6 -8 -6 -4 -4 -0 -2 -3 0 -3 -4 -6 -5 -1 -5 -2 -2 -2 -2 -3 -1 -1 -2 -3 -4
6 4 4 5 7 7 6 5 -1 -10 -19 -25 -28 -30 -31 -31 -19 -14 -18 -19 -14 -8 -9 -7 -9 -10 -11 -1 -7 -7 -3 1 -2 -2 -4 -6 -3 -2 -3 -3 -4 -1 -3 -1 -1 -1 -2
6 6 6 7 7 3 -1 -5 -14 -21 -24 -26 -28 -29 -31 -31 -14 -13 -14 -15 -3 -5 -2 -9 -12 -13 -13 -10 -8 -7 -8 2 -1 -1 0 -1 -0 -1 -2 0 -0 -2 -0 -1 -3 -3 -3
6 6 6 6 4 -10 -15 -19 -22 -24 -25 -27 -28 -29 -30 -20 -14 -20 -20 -5 -4 -6 -5 -9 -13 -12 -11 -12 -9 -5 -9 -7 -5 -2 -2 -2 -3 -2 -2 -2 -0 -3 -3 -4 -6 -4 -2
4 4 4 4 3 -11 -15 -19 -23 -24 -25 -27 -28 -29 -28 -22 -16 -20 -12 -1 -6 -3 -7 -9 -10 -11 -13 -13 -13 -5 -8 -8 -7 -5 -5 -7 -5 -1 -3 -2 -3 -5 -6 -6 -9 -4 -5
2 4 3 4 5 -1 -14 -20 -22 -25 -26 -28 -28 -28 -27 -23 -22 -15 -7 -8 2 -5 -8 -10 -12 -13 -10 -11 -14 -12 -7 -9 -10 -10 -9 -8 -6 -3 -7 -3 -5 -8 -4 -6 -6 -9 -7
4 3 4 3 -8 -6 -13 -19 -24 -27 -28 -30 -27 -24 -27 -27 -18 -10 -6 -0 -4 -5 -8 -9 -13 -11 -11 -12 -12 -15 -8 -9 -9 -10 -8 -10 -9 -8 -8 -7 -9 -11 -8 -5 -4 -8 -5
2 2 -0 -6 -10 -13 -16 -20 -27 -27 -29 -26 -20 -23 -25 -26 -15 -8 -8 -1 -3 -6 -7 -10 -10 -11 -13 -12 -13 -14 -12 -8 -8 -9 -10 -9 -11 -14 -10 -7 -12 -9 -11 -8 -5 1 -1
-6 -3 -5 -7 -13 -16 -18 -20 -25 -26 -25 -18 -19 -9 -21 -19 -9 -12 2 -3 -5 -5 -7 -9 -10 -10 -9 -10 -11 -11 -11 -7 -7 -9 -10 -8 -8 -10 -9 -14 -14 -14 -13 -12 -9 -5 -2
-4 -7 -12 -12 -9 -10 -13 -14 -17 -21 -19 -18 -15 -8 -21 -14 -12 -8 -3 -5 -5 -6 -6 -7 -8 -8 -9 -8 -8 -9 -7 -6 -6 -6 -7 -6 -6 -6 -10 -13 -12 -6 -4 -8 -5 -6 -5
-5 -5 -7 -9 -10 -12 -16 -17 -18 -17 -14 -15 -5 -5 -19 -24 -10 -5 -3 -4 -5 -7 -6 -7 -6 -7 -6 -7 -8 -7 -5 -5 -5 -6 -4 -6 -7 -7 -15 -10 -6 -5 -6 -5 -5 -5 -3
-10 -10 -11 -12 -11 -12 -15 -15 -19 -20 -14 -13 -7 1 -5 -11 -3 -6 -5 -5 -4 -5 -5 -5 -6 -6 -6 -6 -6 -6 -5 -4 -4 -5 -5 -4 -5 -5 -8 -10 -10 -8 -10 -10 -9 -5 -6
-9 -10 -9 -9 -10 -11 -13 -14 -17 -20 -16 -15 -7 -2 -3 -1 -6 -6 -6 -6 -5 -4 -5 -6 -5 -6 -6 -5 -5 -5 -4 -5 -6 -7 -7 -6 -5 -7 -8 -9 -8 -7 -7 -7 -7 -8 -5
-8 -8 -9 -9 -8 -10 -10 -14 -14 -20 -16 -17 -4 -2 -3 -3 -3 -5 -5 -5 -6 -5 -5 -5 -5 -6 -6 -7 -8 -8 -5 -6 -7 -7 -6 -7 -3 -5 -5 -8 -8 -7 -9 -9 -9 -8 -8
-7 -7 -8 -8 -8 -7 -7 -10 -12 -18 -18 -18 -10 -7 -2 -4 -4 -6 -6 -4 -5 -5 -4 -6 -6 -6 -5 -7 -6 -6 -6 -6 -7 -6 -6 -6 -5 -4 -4 -8 -7 -5 -8 -10 -10 -10 -10
-7 -7 -6 -6 -6 -7 -7 -8 -9 -12 -17 -17 -9 -7 -1 -1 -7 -6 -5 -5 -5 -5 -5 -5 -5 -6 -4 -4 -7 -8 -7 -8 -8 -8 -8 -6 -6 -5 -2 -5 -1 -9 -12 -11 -9 -10 -10
-11 -10 -8 -7 -6 -6 -7 -7 -8 -9 -10 -10 -8 -12 -4 -1 -6 -5 -5 -5 -4 -5 -5 -5 -5 -6 -5 -8 -6 -3 -5 -7 -7 -7 -7 -7 -5 -2 -1 -3 -6 -9 -12 -12 -10 -9 -11
-9 -11 -10 -9 -7 -7 -6 -6 -8 -8 -8 -9 -10 -12 -12 -2 -4 -6 -5 -5 -6 -8 -6 -6 -4 -4 -6 -7 -3 -1 -1 -7 -7 -8 -10 -8 -5 -3 -1 0 -1 -11 -11 -12 -11 -6 -11
-4 -6 -7 -7 -6 -6 -5 -5 -5 -7 -8 -12 -14 -15 -10 -3 -5 -5 -7 -6 -8 -9 -9 -6 -5 -4 -4 -3 -1 -0 -1 -7 -5 -7 -8 -5 -3 -0 -2 0 -3 -9 -11 -11 -5 -7 -11
-4 -3 -3 -4 -4 -4 -4 -6 -7 -6 -9 -13 -17 -20 -22 -15 -5 -6 -8 -6 -6 -8 -6 -5 -5 -5 -3 -2 -2 -1 -2 -5 -5 -7 -6 -6 -4 -3 -4 -1 -1 -11 -10 -6 -7 -6 -6
-5 -4 -4 -4 -4 -4 -4 -6 -10 -11 -15 -15 -11 -8 -8 -7 -3 -11 -10 -8 -6 -9 -8 -6 -4 -5 -4 -2 -2 -3 -1 -2 -3 -2 -8 -4 -6 -5 -5 -5 -8 -8 -7 -8 -8 -7 -6

GFSGBSN_850_dewp_279.txt.gz
Dewpoint
4 4 4 4 3 3 2 1 0 -2 -8 -12 -1 5 3 2 1 1 -0 -1 -1 -1 -2 -2 -3 -3 -5 -3 -8 -9 -11 -8 -5 -4 -4 -5 -5 -5 -6 -6 -7 -6 -6 -5 -6 -7 -6
4 4 4 4 3 3 2 1 -0 -4 -12 -8 6 4 2 1 -0 -1 -1 -1 -1 -2 -3 -3 -3 -3 -1 -3 -2 -1 -2 -3 -3 -4 -6 -6 -5 -5 -6 -5 -5 -5 -5 -6 -7 -9 -10
4 4 4 4 4 3 2 1 -1 -8 -11 2 6 4 2 -1 -3 -5 -7 -5 -4 -5 -6 -8 -7 -5 -3 -2 -0 -1 0 -1 -2 -4 -6 -7 -6 -7 -7 -6 -5 -4 -6 -9 -11 -11 -8
4 4 5 4 4 4 3 1 -4 -10 0 6 5 3 2 1 -0 -2 -5 -10 -10 -9 -12 -12 -9 -13 -4 -3 -3 -3 -0 -2 -2 -3 -3 -4 -4 -5 -6 -7 -8 -7 -8 -7 -11 -11 -10
5 5 5 5 4 4 2 -0 -7 -1 6 5 4 3 2 1 -1 -2 -3 -8 -16 -17 -17 -16 -9 -4 -6 -4 -1 -3 -1 -1 -2 -3 -3 -4 -4 -5 -5 -5 -4 -6 -5 -6 -7 -9 -7
5 5 5 5 5 4 2 -3 -9 6 6 5 4 2 -0 -2 -3 -5 -7 -13 -20 -21 -13 -16 -8 -7 -6 -5 -5 -7 -4 -3 -3 -4 -3 -3 -4 -3 -4 -4 -1 -0 -1 -2 -2 -4 -4
6 6 6 5 5 4 0 -6 -1 6 6 4 1 -4 -6 -7 -11 -16 -18 -10 -4 -0 -6 -3 -3 -5 -8 -5 -7 -5 -3 -5 -6 -4 -3 -4 -2 -3 -2 -2 -3 -3 -2 -2 -3 -5 -3
7 7 7 6 5 3 -2 -6 6 6 6 3 -1 -6 -8 -11 -14 -25 -27 -3 -6 -3 1 -5 -5 -5 -4 -3 -9 -5 -3 -9 -7 -5 -4 -4 -3 -4 -4 -5 -4 -4 -4 -4 -6 -7 -5
8 8 7 6 4 1 -2 3 7 6 5 1 -3 -8 -13 -19 -28 -26 -19 -15 -20 -15 0 -8 -6 -6 -6 -2 -6 -5 -2 -5 -8 -10 -11 -7 -7 -6 -5 -7 -6 -6 -5 -5 -4 -5 -7
8 8 7 6 3 -0 3 7 7 6 2 -6 -15 -20 -26 -30 -14 -16 -4 -20 -22 -24 -5 -7 -9 -10 -10 -3 -5 -7 -4 -0 -3 -3 -5 -8 -7 -6 -5 -5 -5 -2 -8 -3 -4 -5 -5
8 8 6 4 1 3 7 7 7 5 -9 -16 -21 -26 -30 -31 -11 -5 -8 -22 -13 -8 2 -10 -11 -12 -11 -7 -7 -6 -7 -1 -4 -5 -5 -3 -2 -5 -5 -5 -4 -5 -6 -6 -5 -5 -5
8 7 5 3 4 7 7 7 6 -1 -18 -23 -27 -30 -30 -17 -25 -22 -23 -14 -8 -3 -2 -9 -12 -11 -9 -9 -8 -5 -7 -6 -5 -6 -6 -6 -9 -5 -5 -6 -6 -4 -5 -9 -9 -9 -6
7 6 4 4 6 6 6 6 1 -13 -23 -28 -29 -30 -30 -26 -3 -25 -16 3 -5 -2 -9 -10 -10 -11 -10 -10 -11 -6 -9 -9 -9 -9 -9 -11 -11 -4 -5 -6 -8 -7 -11 -7 -10 -11 -11
6 6 6 6 5 3 1 -3 -11 -21 -27 -28 -29 -29 -30 -30 -27 -23 -4 -4 1 -6 -9 -11 -12 -12 -10 -11 -13 -12 -9 -11 -11 -12 -14 -11 -8 -4 -8 -9 -11 -11 -13 -5 -5 -5 -6
5 5 4 4 3 1 -3 -11 -16 -26 -27 -29 -29 -17 -17 -28 -23 -13 -1 0 -4 -9 -11 -11 -13 -11 -11 -12 -13 -14 -10 -10 -11 -12 -9 -11 -13 -12 -14 -15 -12 -15 -12 -12 -7 -9 -6
3 3 3 3 4 3 1 -6 -16 -27 -29 -30 -5 -5 -4 -29 -17 -6 -5 -3 -4 -8 -9 -10 -11 -12 -12 -13 -15 -15 -13 -10 -10 -11 -13 -10 -10 -15 -16 -13 -13 -11 -13 -10 -10 -3 -3
2 0 -1 -4 -6 -4 -4 -5 -13 -30 -30 -27 -2 -6 -4 -27 -8 -6 -0 -4 -6 -7 -9 -9 -11 -11 -13 -12 -15 -14 -13 -8 -9 -10 -11 -11 -9 -10 -10 -11 -13 -14 -13 -12 -11 -10 -6
-0 -1 -4 -9 -13 -16 -17 -19 -17 -26 -24 -20 -3 -5 -13 -11 -6 -13 -3 -5 -7 -7 -8 -9 -10 -11 -11 -10 -11 -12 -11 -7 -8 -8 -9 -8 -7 -7 -9 -13 -15 -13 -7 -6 -3 -3 -4
-4 -8 -2 -12 -17 -19 -19 -21 -20 -18 -18 -6 -8 -5 -20 -12 -8 -8 -3 -5 -6 -7 -8 -9 -8 -9 -9 -9 -9 -9 -7 -6 -6 -8 -5 -7 -8 -8 -14 -10 -10 -7 -11 -11 -9 -8 -6
-12 -15 -14 -15 -14 -15 -17 -19 -17 -17 -15 -3 -6 1 -10 -11 -6 -7 -4 -5 -5 -6 -7 -8 -7 -8 -8 -7 -9 -7 -7 -5 -5 -7 -6 -6 -6 -5 -5 -7 -8 -8 -10 -11 -9 -6 -6
-12 -13 -12 -11 -12 -13 -14 -18 -18 -17 -13 -9 -3 -1 -2 -6 -9 -7 -7 -7 -6 -6 -8 -8 -7 -8 -8 -7 -8 -7 -8 -6 -6 -6 -7 -7 -4 -6 -8 -9 -9 -9 -10 -10 -10 -10 -7
-10 -8 -9 -9 -11 -11 -12 -16 -18 -18 -14 -5 1 -4 -5 -3 -8 -7 -6 -6 -7 -7 -7 -7 -6 -9 -8 -7 -8 -9 -7 -6 -7 -7 -6 -6 -3 -4 -4 -9 -11 -10 -11 -11 -10 -11 -11
-9 -9 -8 -8 -8 -8 -10 -13 -19 -19 -17 -6 -13 -5 -0 -4 -4 -6 -5 -7 -8 -6 -4 -6 -8 -7 -6 -7 -7 -6 -6 -7 -7 -6 -6 -5 -4 -3 -4 -8 -7 -4 -7 -10 -11 -12 -11
-8 -8 -8 -6 -6 -7 -8 -11 -14 -19 -18 -5 -5 -3 1 -1 -6 -6 -6 -6 -7 -6 -6 -7 -7 -7 -3 -5 -7 -8 -7 -7 -7 -7 -7 -4 -5 -5 -2 -4 0 -7 -11 -11 -10 -12 -12
-8 -8 -7 -6 -7 -7 -7 -9 -10 -14 -15 -16 -11 -4 -3 -1 -7 -5 -6 -7 -6 -6 -5 -5 -5 -5 -5 -7 -5 -1 -3 -6 -6 -7 -7 -7 -5 -2 -0 -1 -4 -6 -11 -9 -8 -8 -11
-11 -8 -9 -8 -7 -7 -6 -8 -9 -10 -12 -11 -12 -8 -1 -0 -4 -6 -6 -5 -4 -6 -5 -6 -4 -4 -6 -7 -2 3 2 -4 -7 -8 -9 -8 -6 -4 0 2 1 -6 -9 -9 -10 -5 -10
-7 -9 -9 -8 -7 -6 -6 -6 -8 -10 -13 -13 -14 -15 -5 -0 -4 -6 -5 -5 -8 -9 -8 -5 -4 -4 -4 -3 1 2 1 -7 -5 -6 -7 -5 -4 -2 -1 2 -1 -7 -9 -7 0 -3 -3
-4 -5 -6 -5 -5 -5 -6 -8 -8 -8 -13 -15 -20 -21 -7 -1 -3 -3 -5 -6 -8 -9 -5 -6 -4 -3 -2 -1 -0 1 -0 -4 -5 -7 -6 -5 -4 -2 -3 0 1 -7 -7 -4 -2 -1 -1
-4 -4 -3 -4 -4 -5 -5 -8 -13 -13 -16 -9 -4 -17 -7 -2 -2 -3 -4 -4 -4 -5 -7 -4 -2 -3 -3 -1 -2 -2 -0 -1 -2 -1 -7 -4 -6 -4 -4 -4 -7 -7 -5 -4 -5 -4 -4

GFSGBSN_850_dewp_282.txt.gz
Dewpoint
3 3 3 3 3 3 3 2 1 -0 -2 -7 -11 0 3 2 1 0 -0 -1 -1 -2 -2 -3 -5 -5 -7 -2 -4 -4 -5 -8 -9 -6 -6 -6 -7 -6 -5 -7 -9 -7 -7 -6 -6 -8 -9
3 4 3 3 3 3 3 2 1 -0 -3 -10 -8 5 2 1 -1 -2 -2 -2 -2 -3 -4 -5 -5 -5 -2 -3 -1 -1 -1 -1 -3 -4 -4 -7 -8 -7 -8 -9 -6 -7 -7 -6 -9 -9 -11
3 4 3 4 4 3 3 2 1 -1 -5 -12 -3 5 2 1 -2 -3 -4 -5 -5 -5 -4 -6 -8 -7 -3 -2 -2 -1 -2 -1 -2 -3 -3 -4 -6 -5 -6 -6 -8 -8 -7 -8 -9 -10 -10
4 4 3 4 5 4 2 2 1 -1 -8 -12 1 5 3 1 -0 -1 -2 -3 -5 -9 -10 -10 -10 -9 -2 -4 -5 -2 -6 -1 -2 -2 -3 -3 -3 -4 -4 -4 -6 -4 -5 -4 -8 -11 -11
5 4 4 4 4 4 3 1 1 -3 -11 -5 5 4 2 1 0 -1 -2 -2 -3 -8 -11 -14 -9 -1 -5 -5 -4 -5 -6 -3 -3 -3 -3 -3 -5 -4 -4 -3 -3 -4 -1 -1 -2 -6 -5
6 5 5 5 4 5 4 1 0 -5 -5 4 4 3 2 1 -0 -1 -1 -3 -5 -7 -8 -5 -3 -4 -5 -6 -6 -7 -6 -4 -6 -6 -4 -4 -3 -3 -3 -3 1 0 -0 -2 -3 -6 -6
8 5 5 5 5 4 4 2 -1 -8 4 4 4 2 -0 -2 -4 -5 -4 -5 -3 2 -3 -5 -6 -6 -8 -7 -8 -9 -5 -5 -7 -8 -4 -4 -2 -3 -2 -3 -4 -5 -5 -5 -6 -8 -7
8 6 6 6 6 5 4 2 -3 -2 5 5 4 0 -3 -4 -7 -10 -10 -0 -3 -3 -2 -5 -7 -8 -6 -7 -7 -9 -6 -5 -9 -8 -10 -5 -3 -5 -5 -5 -6 -8 -7 -6 -7 -7 -5
9 6 6 6 6 5 4 1 -4 3 6 5 3 1 -2 -6 -13 -13 -12 -12 -15 -9 -1 -5 -7 -8 -7 -8 -6 -8 -6 -5 -7 -8 -11 -9 -10 -9 -8 -9 -7 -7 -6 -6 -7 -7 -9
9 7 7 7 6 5 3 -1 -3 5 6 5 3 -2 -10 -17 -4 -12 -1 -17 -22 -23 -1 -6 -9 -9 -11 -7 -4 -7 -6 -4 -2 -3 -4 -8 -8 -5 -6 -7 -6 -2 -8 -7 -6 -6 -5
9 8 8 7 6 5 2 -2 3 7 6 4 0 -9 -20 -25 -8 -3 -3 -25 -20 -5 4 -9 -11 -12 -11 -7 -7 -6 -8 -4 -3 -7 -7 -6 -4 -5 -6 -6 -8 -7 -5 -4 -7 -9 -7
8 8 8 7 6 4 0 -0 5 7 5 2 -6 -15 -28 -19 -23 -17 -26 -24 -5 0 2 -8 -12 -11 -10 -10 -9 -7 -8 -8 -9 -7 -9 -7 -8 -9 -4 -8 -9 -8 -6 -11 -12 -10 -6
8 8 8 7 5 2 1 4 7 6 3 -5 -11 -23 -30 -20 -0 -25 -27 3 -2 2 -8 -9 -10 -11 -10 -10 -11 -9 -10 -10 -11 -9 -10 -12 -13 -5 -5 -9 -15 -14 -12 -9 -8 -8 -11
8 8 7 6 4 3 4 6 6 4 -5 -13 -19 -29 -31 -29 -25 -29 -14 2 3 -6 -7 -12 -13 -12 -11 -11 -13 -13 -11 -11 -11 -13 -13 -12 -8 -6 -10 -12 -11 -11 -12 -8 -6 -7 -7
8 7 6 4 4 4 5 6 4 -3 -13 -21 -28 -30 -27 -28 -30 -28 3 6 1 -9 -11 -12 -14 -12 -10 -13 -13 -14 -10 -10 -11 -13 -10 -11 -12 -15 -18 -17 -14 -12 -11 -11 -8 -9 -6
6 5 5 4 2 0 1 -1 -6 -12 -20 -28 -13 -19 -2 -26 -28 -19 2 -0 -5 -7 -10 -11 -12 -12 -12 -12 -14 -14 -13 -11 -10 -12 -13 -11 -9 -13 -16 -12 -13 -12 -13 -10 -11 -6 -5
5 4 4 3 1 -1 -1 -4 -10 -19 -28 -30 -12 -4 -1 -28 -24 -1 3 -4 -6 -8 -10 -9 -11 -11 -14 -12 -14 -14 -13 -9 -11 -11 -11 -10 -8 -9 -11 -11 -12 -13 -12 -11 -9 -6 -2
4 4 4 3 3 2 2 -1 -8 -18 -24 -26 -4 -4 -3 -29 -6 -8 -1 -6 -7 -8 -8 -10 -9 -11 -11 -11 -12 -13 -12 -8 -9 -10 -9 -8 -5 -6 -8 -12 -14 -12 -11 -6 -3 -3 -5
2 2 -1 -9 -11 -10 -9 -7 -11 -25 -29 -5 -5 -1 -13 -14 -5 -3 -3 -5 -8 -8 -9 -10 -10 -10 -11 -9 -10 -10 -9 -6 -8 -9 -3 -6 -9 -8 -13 -10 -11 -8 -10 -10 -10 -7 -5
-2 -0 -4 -9 -12 -15 -17 -19 -20 -23 -19 -9 -6 2 -6 -5 -5 -3 -2 -4 -6 -7 -8 -9 -9 -9 -9 -8 -9 -8 -8 -4 -5 -7 -6 -7 -8 -6 -4 -6 -8 -8 -10 -11 -10 -6 -7
-9 -10 -9 -13 -13 -15 -17 -18 -19 -23 -7 -2 -3 1 -5 -6 -8 -6 -4 -6 -6 -6 -8 -8 -8 -9 -8 -7 -8 -7 -9 -5 -5 -5 -7 -6 -3 -4 -5 -7 -8 -8 -9 -11 -11 -11 -8
-9 -11 -12 -14 -14 -14 -15 -19 -20 -21 -19 -3 -1 -4 -4 -3 -10 -9 -4 -6 -7 -8 -8 -8 -8 -9 -9 -8 -8 -8 -8 -7 -6 -7 -6 -6 -3 -3 -3 -7 -10 -9 -9 -8 -9 -10 -10
-11 -11 -10 -12 -14 -16 -15 -19 -20 -20 -16 -7 -3 -4 2 -3 -4 -4 -3 -6 -8 -7 -4 -6 -9 -7 -7 -4 -6 -5 -5 -5 -6 -6 -6 -5 -3 -2 -2 -7 -6 -3 -7 -8 -9 -10 -10
-9 -10 -8 -7 -9 -11 -12 -15 -18 -19 -12 -3 -3 -3 3 2 -5 -5 -7 -8 -8 -6 -5 -7 -7 -7 -3 -5 -7 -8 -8 -8 -8 -7 -6 -4 -4 -4 -1 -3 1 -5 -8 -10 -7 -7 -8
-6 -6 -6 -7 -8 -9 -9 -12 -14 -17 -15 -6 -7 -2 -2 1 -6 -5 -6 -6 -4 -6 -5 -6 -4 -3 -5 -8 -5 0 -2 -4 -6 -6 -6 -7 -5 -0 -0 -0 -3 -5 -8 -7 -5 -4 -6
-8 -8 -7 -7 -8 -8 -8 -10 -12 -11 -11 -15 -13 -4 2 3 -3 -6 -6 -6 -2 -4 -4 -3 -4 -4 -6 -7 -0 5 3 -2 -7 -8 -9 -8 -6 -4 3 1 0 -5 -7 -7 -7 -2 -1
-11 -9 -9 -8 -7 -6 -7 -8 -10 -12 -12 -14 -12 -5 -1 -1 -3 -4 -5 -4 -6 -6 -4 -4 -3 -4 -4 -3 2 3 2 -7 -5 -6 -6 -5 -5 -1 0 2 0 -5 -7 -6 -1 1 -2
-6 -7 -7 -6 -5 -6 -8 -10 -9 -12 -16 -16 -15 -8 -2 1 -2 -2 -5 -5 -7 -6 -3 -4 -3 -2 -2 0 2 2 1 -2 -4 -6 -6 -6 -3 -1 -2 1 1 -6 -6 -0 -1 -3 -3
-3 -3 -3 -3 -4 -5 -7 -13 -13 -14 -13 -5 -17 -15 -4 -2 -2 -3 -3 -4 -3 -3 -2 -4 -2 -3 -2 1 0 1 2 -0 -2 -0 -6 -3 -5 -3 -4 -3 -5 -6 -3 -4 -4 -3 -3

GFSGBSN_850_dewp_285.txt.gz
Dewpoint
4 3 3 2 2 2 3 2 1 0 -1 -3 -7 -11 -2 1 0 -0 -1 -2 -2 -3 -4 -7 -5 -6 -7 -1 -2 -1 -1 -4 -6 -4 -4 -5 -7 -7 -6 -8 -8 -5 -6 -8 -6 -7 -8
4 3 3 2 2 3 3 2 1 0 -1 -4 -9 -9 -0 1 -1 -2 -2 -3 -4 -5 -6 -5 -6 -7 -6 -1 -1 -2 -1 -1 -1 -2 -3 -4 -4 -6 -6 -6 -5 -8 -7 -7 -8 -8 -8
5 4 4 3 2 3 3 2 1 0 -1 -5 -10 -5 2 1 -2 -2 -3 -4 -5 -6 -8 -7 -8 -8 -3 -2 -3 -4 -4 -2 -2 -2 -2 -3 -3 -4 -5 -3 -5 -4 -5 -5 -6 -8 -8
6 5 4 4 3 3 3 2 1 -0 -2 -6 -12 -4 3 1 -0 -2 -2 -3 -3 -4 -7 -11 -10 -5 -2 -4 -3 -2 -6 -3 -2 -3 -3 -4 -3 -3 -3 -4 -4 -3 -4 -2 -4 -6 -7
8 5 4 4 3 3 2 2 2 0 -2 -6 -12 -3 3 1 0 -1 -2 -5 -3 -4 -6 -8 -9 -4 -4 -6 -5 -6 -6 -5 -5 -6 -5 -4 -3 -4 -4 -2 -1 -2 0 -1 -3 -7 -7
9 5 4 4 4 3 3 2 2 0 -3 -8 -7 1 2 1 0 -1 -2 -2 -3 -2 -5 -3 -2 -3 -6 -6 -7 -10 -6 -5 -5 -5 -8 -4 -3 -2 -2 -1 1 -1 -3 -5 -5 -7 -7
9 6 5 5 5 3 4 2 1 -0 -5 -9 -2 2 2 1 -1 -2 -2 -4 -2 2 -1 -4 -8 -7 -7 -7 -8 -10 -6 -8 -6 -6 -6 -7 -1 -0 -3 -3 -4 -5 -7 -7 -7 -8 -6
9 8 5 5 5 4 5 3 1 -1 -5 -0 1 3 1 -1 -3 -5 -7 -4 -5 -4 -6 -7 -4 -7 -7 -9 -6 -7 -8 -6 -5 -7 -9 -9 -3 -6 -7 -8 -8 -7 -6 -5 -7 -9 -8
8 9 6 5 5 5 4 3 1 -1 -3 4 3 2 0 -2 -4 -5 -6 -7 -15 -12 1 -5 -6 -7 -8 -11 -7 -8 -7 -6 -3 -6 -4 -5 -6 -6 -6 -6 -4 -5 -6 -6 -4 -6 -7
9 8 6 5 5 5 4 3 1 -2 -0 5 4 3 0 -3 -4 -7 -2 -20 -24 -21 3 -5 -8 -10 -11 -9 -5 -7 -8 -7 -1 -3 -6 -5 -5 -4 -6 -6 -7 -4 -6 -4 -3 -2 -3
7 8 6 6 6 6 5 3 1 -3 2 5 4 2 -5 -11 -4 -6 -5 -25 -23 1 5 -9 -11 -12 -11 -9 -8 -6 -8 -8 -4 -6 -8 -5 -4 -6 -5 -5 -8 -6 -5 -4 -3 -5 -10
8 9 6 6 6 5 4 2 -0 -2 2 5 4 -3 -11 -15 -20 -19 -27 -25 -10 1 2 -8 -11 -10 -9 -10 -9 -9 -9 -11 -11 -8 -6 -7 -8 -6 -4 -7 -11 -12 -12 -11 -11 -10 -6
8 9 7 7 6 6 4 2 -1 -0 5 5 2 -7 -15 -15 -12 -24 -26 -5 0 3 -5 -8 -9 -10 -9 -9 -10 -12 -9 -10 -11 -9 -8 -13 -3 -5 -8 -10 -11 -11 -10 -4 -4 -3 -5
9 8 7 7 7 6 4 1 1 3 6 3 -4 -13 -24 -27 -16 -29 -6 3 3 -1 -5 -13 -12 -12 -9 -10 -12 -12 -9 -8 -11 -12 -10 -9 -3 -10 -16 -14 -13 -11 -11 -4 -4 -3 -4
8 8 7 7 6 5 3 1 4 6 4 -5 -15 -23 -27 -30 -31 -28 3 4 2 -4 -10 -10 -14 -12 -9 -12 -13 -13 -9 -9 -11 -11 -9 -5 -8 -13 -13 -13 -14 -10 -7 -11 -7 -6 -4
8 8 8 7 6 4 2 3 5 5 -3 -16 -22 -19 -14 -28 -30 -13 3 3 -2 -7 -9 -11 -10 -11 -9 -11 -13 -12 -8 -10 -9 -11 -11 -8 -8 -9 -12 -12 -12 -12 -12 -8 -7 -5 -2
7 7 7 5 4 3 3 4 4 -2 -15 -24 -13 -6 -4 -27 -25 -3 3 0 -5 -9 -9 -5 -8 -10 -11 -11 -13 -13 -7 -8 -9 -9 -11 -7 -7 -5 -9 -10 -9 -10 -9 -7 -6 -5 0
6 5 3 3 2 2 2 1 -4 -13 -25 -17 -6 -1 -3 -28 -6 -3 -1 -5 -6 -7 -8 -8 -8 -9 -9 -10 -11 -11 -4 -5 -9 -9 -5 -5 -4 -3 -7 -10 -12 -11 -8 -6 -2 -1 -4
5 5 5 4 4 3 3 2 0 -5 -19 -15 -4 -1 -8 -14 -3 -3 -4 -5 -7 -7 -8 -9 -8 -8 -10 -8 -10 -9 -2 -7 -8 -4 -3 -6 -7 -6 -6 -8 -7 -7 -8 -9 -8 -6 -6
4 4 4 3 2 2 -1 -1 1 -3 -19 -12 -5 2 -8 -5 -2 -2 -1 -2 -5 -7 -8 -9 -8 -9 -8 -8 -8 -7 -2 -4 -7 -5 -7 -8 -6 -5 -2 -3 -5 -4 -6 -8 -8 -5 -6
2 1 2 -3 -6 -4 -6 -8 -8 -4 -21 -9 -2 2 -6 -3 -8 -7 -2 -2 -3 -5 -7 -8 -7 -7 -7 -6 -5 -6 -5 -2 -4 -6 -7 -5 -2 -3 -3 -4 -4 -5 -6 -8 -7 -7 -6
-4 -7 -10 -12 -14 -17 -18 -20 -21 -20 -14 -2 -1 -1 -3 -1 -12 -8 -2 -2 -3 -5 -6 -6 -6 -7 -8 -6 -4 -3 -6 -4 -4 -4 -4 -5 -2 -2 -1 -4 -5 -5 -6 -6 -7 -7 -7
-11 -11 -11 -14 -17 -17 -17 -19 -20 -20 -4 -4 -1 -2 1 -1 -3 -3 -2 -4 -5 -5 -5 -6 -6 -7 -2 -2 -5 -6 -6 -5 -5 -5 -4 -4 -2 -1 -0 -3 -3 -1 -3 -5 -6 -6 -5
-9 -10 -11 -11 -13 -13 -17 -19 -22 -18 -13 -5 -5 -4 3 4 -1 -3 -5 -5 -5 -4 -3 -6 -5 -3 -4 -6 -9 -8 -7 -9 -8 -7 -6 -4 -3 -2 0 -1 -3 -2 -6 -6 -4 -5 -1
-9 -7 -8 -9 -12 -13 -13 -15 -19 -18 -6 -3 -7 -4 -2 2 -3 -4 -5 -3 -5 -5 -4 -3 -3 -4 -6 -8 -2 -1 -0 -3 -2 -4 -5 -5 -3 -1 -3 1 -2 -3 -5 -4 -3 -1 -2
-7 -7 -7 -9 -7 -11 -13 -14 -16 -20 -14 -7 -11 -4 1 2 -1 -4 -4 -5 -2 -2 -3 -3 -4 -6 -7 -3 -1 -2 1 1 -4 -3 -5 -5 -4 -2 -2 -2 -1 -3 -4 -5 -5 -2 -3
-7 -8 -7 -7 -7 -7 -10 -12 -14 -15 -17 -18 -14 -3 1 -3 -3 -5 -3 -2 -5 -3 -1 -3 -3 -8 -4 -2 1 1 1 -5 -4 -4 -4 -3 -2 -1 0 -2 1 -4 -3 -5 -0 -0 -3
-9 -7 -6 -6 -6 -8 -10 -10 -13 -15 -14 -14 -7 -5 -5 -2 -3 -3 -4 -4 -6 -4 -1 -3 -3 -3 -2 1 2 1 1 -1 -3 -4 -5 -3 -1 0 -0 0 -1 -4 -3 -0 -2 -3 -3
-6 -6 -5 -4 -5 -7 -12 -13 -13 -11 -14 -17 -10 -7 -8 -6 -3 -3 -3 -4 -5 -3 -3 -4 -2 -3 -3 1 1 1 1 0 -0 1 -5 -2 -3 -1 -1 -1 -3 -3 -3 -3 -3 -3 -4

GFSGBSN_850_dewp_288.txt.gz
Dewpoint
4 4 3 2 1 1 2 2 1 0 -1 -2 -5 -9 -8 -3 -2 -2 -2 -3 -3 -5 -8 -9 -6 -7 -3 -2 -1 -2 -2 -3 -2 -2 -3 -4 -4 -4 -5 -7 -5 -6 -6 -6 -6 -7 -6
5 4 3 3 2 2 2 2 1 0 -1 -3 -5 -9 -5 -1 -2 -2 -3 -4 -5 -6 -7 -6 -7 -7 -4 -1 -3 -3 -5 -4 -2 -1 -2 -3 -3 -3 -5 -4 -4 -6 -4 -5 -5 -5 -6
7 4 4 3 3 2 2 2 1 0 -1 -3 -6 -10 -5 -1 -1 -2 -3 -4 -4 -4 -7 -9 -8 -7 -2 -2 -3 -4 -7 -3 -2 -2 -3 -3 -3 -3 -3 -3 -4 -4 -3 -4 -5 -6 -7
9 5 4 3 4 2 3 2 1 0 -1 -3 -6 -11 -6 -0 -0 -2 -3 -4 -6 -4 -5 -7 -9 -6 -3 -3 -4 -3 -8 -7 -6 -4 -5 -4 -4 -4 -4 -3 -3 -3 -3 -2 -4 -7 -8
9 5 4 4 4 3 3 2 1 -0 -1 -3 -7 -11 -8 -1 -1 -2 -3 -7 -4 -3 -5 -6 -7 -6 -5 -5 -5 -8 -7 -5 -7 -7 -7 -6 -4 -3 -4 -2 -1 -2 -1 -4 -7 -8 -7
8 8 5 4 4 3 4 3 1 0 -2 -4 -8 -8 -4 -2 -1 -3 -4 -4 -4 -2 -5 -2 -4 -4 -6 -7 -7 -7 -8 -9 -9 -6 -7 -5 -4 -2 -2 -2 0 -2 -5 -7 -7 -8 -8
8 9 5 4 4 4 4 3 2 0 -2 -4 -8 -3 -0 -0 -1 -1 -3 -6 -6 -0 -5 -5 -4 -8 -7 -7 -9 -7 -7 -9 -6 -6 -6 -7 -2 -1 -3 -6 -7 -8 -7 -6 -7 -8 -7
8 9 6 5 4 4 4 4 2 0 -2 -6 -5 0 1 -1 -2 -3 -4 -7 -7 -7 -7 -9 -4 -6 -7 -7 -9 -8 -8 -7 -5 -3 -6 -8 -5 -6 -7 -6 -5 -6 -6 -6 -6 -6 -6
8 8 7 5 4 5 4 4 3 0 -2 -6 -1 2 1 -1 -2 -4 -5 -11 -16 -15 -3 -6 -6 -8 -9 -11 -8 -7 -8 -7 -4 -3 -5 -5 -5 -7 -7 -7 -6 -5 -6 -4 -3 -4 -6
8 8 7 5 5 5 4 4 3 0 -3 -5 0 3 0 -2 -3 -5 -5 -22 -23 -20 -2 -5 -8 -9 -12 -8 -5 -7 -8 -7 -4 -6 -7 -6 -5 -7 -5 -6 -7 -6 -7 -6 -4 -3 -1
8 7 8 5 5 5 4 4 3 -0 -4 0 2 3 -0 -4 -3 -8 -11 -25 -23 3 -0 -7 -11 -12 -11 -10 -9 -8 -8 -10 -7 -8 -9 -8 -5 -5 -3 -6 -10 -7 -10 -7 -7 -5 -11
8 8 8 6 5 5 4 4 2 -1 -4 1 3 2 -3 -7 -12 -15 -25 -24 -5 -3 -2 -9 -11 -11 -9 -10 -11 -12 -10 -13 -14 -11 -9 -8 -7 -5 -5 -10 -13 -13 -12 -10 -9 -9 -6
8 8 8 6 5 5 5 4 2 -1 -3 3 4 -0 -4 -11 -10 -16 -27 -11 -3 0 -5 -9 -10 -11 -9 -10 -11 -12 -11 -11 -11 -14 -9 -8 -5 -8 -14 -13 -14 -12 -8 -5 -7 -4 -6
8 8 8 6 6 6 5 4 1 -2 2 3 2 1 -11 -20 -12 -27 -17 -2 -6 -2 -6 -13 -12 -12 -9 -10 -13 -11 -9 -9 -11 -12 -9 -8 -2 -12 -14 -15 -13 -13 -10 -4 -7 -4 -5
8 7 8 6 6 6 5 3 1 1 2 4 3 -4 -21 -27 -28 -29 -3 -0 -2 -3 -9 -10 -14 -12 -9 -12 -12 -10 -9 -9 -11 -11 -9 -7 -9 -11 -13 -14 -15 -12 -8 -11 -8 -5 -5
8 8 8 7 7 6 5 3 0 1 3 2 -9 -16 -20 -26 -30 -18 -1 0 -1 -7 -9 -10 -10 -11 -8 -11 -14 -12 -7 -8 -9 -10 -11 -8 -10 -10 -9 -11 -12 -13 -13 -9 -6 -6 -3
8 8 8 8 7 6 4 2 1 3 3 -10 -15 -10 -7 -29 -26 -5 -3 -1 -6 -9 -9 -7 -7 -10 -11 -12 -13 -12 -6 -7 -9 -9 -8 -5 -7 -8 -10 -10 -9 -10 -7 -6 -6 -3 -2
7 8 8 7 6 5 3 2 4 4 -3 -15 -11 -0 -5 -27 -12 -3 -1 -3 -6 -8 -9 -9 -9 -9 -9 -11 -12 -7 -4 -6 -9 -7 -4 -7 -4 -6 -9 -10 -11 -9 -8 -7 -3 -4 -4
6 7 5 5 4 3 2 2 1 -2 -13 -10 -7 -0 -6 -16 -9 -4 -5 -5 -6 -8 -8 -9 -9 -8 -9 -9 -10 -3 -3 -7 -6 -5 -5 -9 -8 -11 -10 -8 -6 -6 -6 -7 -7 -5 -4
5 5 4 4 2 2 2 2 -1 -13 -21 -8 -3 -0 -12 -9 -1 -4 -3 -4 -5 -7 -8 -8 -8 -9 -9 -8 -8 -4 -2 -4 -6 -6 -7 -9 -7 -8 -10 -4 -4 -4 -4 -6 -7 -5 -5
3 4 4 5 5 4 3 3 2 -4 -15 -10 -4 -1 -9 -8 -11 -6 -2 -2 -4 -6 -7 -8 -7 -8 -7 -7 -7 -8 -2 -3 -4 -7 -7 -5 -5 -3 -3 -3 -3 -3 -4 -6 -6 -6 -5
4 4 3 4 3 4 3 -2 -0 -2 -14 -10 -3 -0 -5 -5 -12 -10 -6 -1 -3 -6 -6 -6 -6 -7 -6 -4 -3 -4 -3 -2 -2 -4 -6 -5 -4 -3 -2 -4 -4 -4 -5 -5 -6 -6 -5
2 2 1 -0 1 -5 -0 2 0 -4 -11 -5 -1 -1 -4 -1 -5 -8 -4 -3 -2 -5 -5 -5 -6 -3 -1 -3 -6 -7 -5 -5 -5 -4 -4 -3 -2 -2 -1 -2 -3 -3 -4 -5 -5 -1 -1
-9 -11 -10 -11 -13 -17 -18 -11 -8 -11 -11 -4 -3 -1 -0 -0 -2 -5 -5 -4 -3 -4 -3 -3 -4 -3 -5 -7 -8 -7 -6 -9 -9 -6 -6 -3 -3 -2 -0 -4 -6 -5 -6 -5 -1 -1 -2
-9 -9 -10 -10 -13 -16 -17 -20 -21 -20 -8 -4 -3 -2 -1 0 -3 -3 -3 -3 -4 -4 -3 -3 -4 -5 -6 -8 -2 -3 -1 -3 -3 -6 -6 -5 -3 -2 -4 0 -4 -3 -4 -4 -4 -1 -3
-7 -8 -8 -10 -10 -13 -15 -17 -19 -18 -12 -4 -7 -5 -1 -3 -2 -2 -3 -4 -3 -3 -2 -3 -4 -6 -8 -3 -2 -6 -3 -2 -1 -2 -5 -4 -4 -2 -3 -4 -1 -4 -3 -5 -5 0 -3
-6 -7 -8 -9 -10 -10 -13 -13 -16 -16 -9 -8 -10 -7 -0 -4 -2 -3 -3 -3 -4 -3 -2 -2 -5 -8 -5 -2 -0 -1 -0 -1 -3 -1 -1 -1 -2 -1 -0 -3 -2 -3 -4 -4 -2 -2 -3
-8 -8 -8 -8 -9 -10 -12 -14 -15 -17 -18 -15 -14 -13 -3 -4 -2 -3 -3 -4 -3 -4 -2 -3 -4 -5 -2 -2 -0 0 1 -1 -3 -4 -3 -2 -0 0 -1 0 0 -3 -4 -3 -3 -4 -4
-9 -8 -8 -8 -10 -13 -12 -13 -14 -15 -14 -10 -8 -6 -6 -7 -3 -3 -3 -4 -3 -3 -4 -5 -5 -3 -5 -0 -1 -2 -1 -1 -1 -0 -4 -2 -3 -1 -1 -1 -3 -4 -4 -4 -4 -4 -3

GFSGBSN_850_dewp_291.txt.gz
Dewpoint
6 3 2 2 1 2 2 2 1 0 -1 -3 -4 -7 -9 -6 -4 -3 -3 -4 -6 -8 -10 -8 -7 -6 -3 -2 -1 -2 -5 -5 -2 -2 -3 -3 -3 -3 -3 -6 -5 -6 -5 -4 -5 -6 -8
8 4 3 2 1 2 2 2 2 1 -1 -3 -5 -7 -9 -6 -3 -3 -3 -4 -5 -5 -8 -7 -7 -7 -2 -2 -3 -3 -6 -6 -3 -2 -2 -3 -3 -3 -4 -4 -4 -5 -4 -4 -5 -8 -8
8 5 4 3 2 2 3 2 2 1 -1 -3 -5 -8 -9 -5 -3 -3 -4 -4 -5 -4 -6 -8 -8 -7 -2 -3 -3 -4 -7 -8 -4 -5 -3 -4 -4 -3 -3 -3 -4 -3 -3 -5 -5 -8 -7
8 6 4 3 3 2 3 3 2 1 -1 -3 -5 -8 -10 -5 -3 -3 -4 -5 -8 -4 -5 -6 -8 -7 -3 -4 -4 -6 -8 -8 -8 -7 -6 -5 -4 -3 -4 -3 -3 -3 -4 -5 -7 -9 -8
8 7 4 4 3 3 3 3 2 1 -1 -3 -5 -8 -11 -6 -4 -4 -5 -9 -7 -4 -5 -6 -6 -6 -5 -5 -6 -7 -8 -9 -11 -8 -7 -6 -6 -3 -4 -2 -3 -3 -2 -5 -7 -9 -8
8 7 5 4 3 3 3 3 2 1 -1 -3 -6 -9 -10 -8 -7 -7 -7 -8 -6 -2 -5 -3 -6 -5 -6 -7 -8 -8 -8 -9 -9 -8 -8 -6 -4 -2 -4 -3 -2 -4 -6 -7 -7 -8 -7
8 9 5 5 4 4 3 3 3 1 -1 -3 -6 -9 -7 -5 -4 -4 -6 -9 -2 0 -5 -7 -5 -6 -6 -7 -7 -7 -7 -9 -7 -7 -6 -8 -2 -2 -5 -6 -8 -7 -6 -6 -7 -8 -7
8 9 6 5 4 4 4 3 3 1 -1 -4 -6 -4 -2 -2 -2 -3 -4 -7 -7 -7 -8 -6 -6 -6 -7 -9 -10 -6 -8 -9 -4 -3 -6 -6 -4 -7 -7 -7 -5 -6 -6 -5 -6 -5 -7
8 8 8 4 4 4 5 3 3 0 -1 -4 -4 -1 0 -1 -2 -4 -6 -10 -18 -16 -6 -5 -8 -9 -10 -9 -6 -7 -9 -6 -3 -6 -6 -5 -5 -7 -8 -7 -9 -8 -7 -7 -4 -5 -7
9 8 8 5 4 4 5 4 3 1 -2 -3 -0 0 1 -1 -3 -4 -10 -19 -23 -12 -3 -4 -9 -10 -11 -9 -7 -7 -8 -7 -6 -7 -7 -5 -6 -6 -6 -9 -9 -8 -9 -9 -5 -7 -6
8 8 8 6 4 4 5 4 3 1 -2 0 3 2 0 -3 -4 -9 -14 -24 -20 2 -1 -7 -11 -12 -11 -9 -9 -10 -11 -12 -8 -10 -8 -9 -6 -4 -7 -12 -14 -10 -11 -11 -8 -6 -11
7 8 8 6 6 5 4 4 3 1 -3 1 3 2 -2 -5 -9 -14 -24 -23 -4 -3 -3 -10 -11 -11 -9 -10 -12 -12 -12 -14 -15 -11 -11 -8 -6 -7 -7 -12 -13 -13 -11 -10 -9 -9 -7
7 8 8 7 5 4 5 4 2 0 -3 3 3 0 -4 -5 -11 -16 -25 -14 -2 0 -5 -9 -10 -11 -9 -11 -12 -11 -11 -11 -12 -15 -10 -9 -11 -12 -15 -15 -15 -12 -9 -9 -12 -6 -7
7 7 8 7 5 5 5 4 3 0 -3 2 2 -1 -8 -10 -11 -24 -13 -4 -7 -5 -5 -12 -12 -12 -9 -11 -13 -10 -9 -9 -11 -11 -9 -6 -2 -12 -14 -15 -14 -12 -9 -7 -15 -7 -8
8 8 9 7 5 5 5 4 2 -0 -3 1 1 -5 -16 -18 -21 -26 -5 -2 -2 -2 -9 -11 -14 -11 -10 -12 -12 -9 -9 -10 -10 -10 -9 -10 -9 -11 -11 -12 -14 -13 -9 -10 -8 -6 -6
7 7 8 7 6 5 5 4 2 -0 -0 1 -4 -8 -14 -24 -28 -20 -6 -3 -2 -5 -10 -11 -11 -12 -9 -10 -14 -8 -8 -8 -9 -10 -10 -8 -12 -11 -8 -12 -12 -13 -13 -9 -7 -7 -6
6 8 7 7 6 6 5 4 2 -1 0 0 -12 -8 -11 -24 -18 -10 -6 -5 -5 -9 -8 -9 -8 -10 -11 -13 -13 -9 -7 -7 -9 -10 -7 -6 -9 -12 -12 -10 -9 -9 -7 -6 -6 -4 -4
6 8 8 7 7 6 5 3 1 2 2 -8 -10 -2 -9 -21 -14 -4 -3 -1 -7 -8 -9 -9 -9 -9 -10 -13 -12 -5 -5 -6 -8 -7 -6 -8 -5 -10 -11 -10 -9 -9 -8 -6 -4 -5 -4
6 8 7 8 7 6 5 3 1 2 -1 -10 -5 -2 -13 -15 -9 -5 -6 -5 -6 -8 -9 -9 -9 -9 -9 -10 -7 -3 -5 -6 -6 -7 -4 -10 -10 -18 -8 -8 -7 -6 -6 -7 -7 -5 -4
5 8 7 7 7 5 3 2 3 2 -5 -9 -5 -1 -10 -14 -5 -7 -4 -5 -6 -7 -8 -9 -9 -9 -9 -8 -7 -2 -4 -5 -7 -7 -8 -12 -8 -14 -13 -6 -4 -4 -4 -5 -6 -4 -5
6 7 6 6 4 3 2 1 2 0 -8 -5 -3 -2 -7 -6 -8 -4 -4 -3 -5 -6 -7 -8 -8 -9 -8 -7 -8 -2 -2 -4 -5 -6 -7 -8 -11 -4 -4 -3 -3 -3 -3 -4 -6 -6 -5
4 4 4 3 3 2 1 2 0 -10 -14 -5 -4 -1 -7 -11 -10 -5 -4 -1 -4 -6 -6 -7 -7 -7 -7 -7 -6 -5 -2 -3 -3 -4 -6 -5 -6 -3 -3 -4 -3 -3 -5 -5 -5 -6 -5
4 4 5 5 4 3 2 2 2 -3 -17 -12 -2 -2 -5 -1 -8 -8 -6 -4 -2 -5 -5 -6 -6 -3 -3 -4 -6 -5 -5 -4 -4 -4 -4 -4 -2 -2 -3 -3 -4 -7 -4 -5 -2 -1 -1
4 4 4 4 3 3 3 3 -0 -1 -6 -10 -6 -2 -3 -0 -4 -9 -8 -6 -2 -4 -3 -3 -5 -4 -5 -8 -8 -7 -7 -8 -5 -5 -5 -2 -3 -3 -1 -4 -12 -9 -5 -4 -1 -1 -2
0 -6 -7 -1 2 2 1 2 2 1 -3 -7 -5 -2 -1 -0 -2 -3 -4 -2 -3 -4 -3 -3 -4 -5 -7 -8 -4 -5 -3 -6 -5 -7 -5 -5 -3 -1 -4 -0 -5 -3 -4 -2 -2 -1 -3
-12 -14 -11 -11 -16 -17 -17 -15 -4 -1 -9 -8 -5 -3 -3 -3 -2 -2 -3 -4 -3 -2 -3 -3 -5 -7 -8 -3 -4 -9 -11 -7 -2 -2 -5 -3 -4 -4 -5 -5 -3 -5 -4 -4 -5 -1 -3
-8 -8 -11 -11 -12 -14 -18 -17 -15 -17 -15 -5 -4 -3 -2 -3 -3 -2 -3 -3 -4 -4 -2 -3 -6 -7 -5 -2 -1 -3 -3 -2 -3 -1 -1 -2 -2 -1 -1 -3 -3 -5 -4 -4 -1 -2 -3
-10 -9 -9 -10 -12 -12 -13 -16 -17 -13 -7 -6 -6 -5 -2 -4 -3 -3 -3 -3 -4 -4 -2 -3 -5 -6 -3 -3 -2 -2 -2 -1 -4 -4 -1 -1 -0 -0 -1 -0 -2 -3 -4 -3 -3 -3 -5
-10 -8 -9 -10 -11 -12 -12 -15 -15 -18 -15 -8 -9 -10 -5 -6 -4 -4 -3 -3 -4 -5 -5 -5 -6 -5 -6 -2 -3 -2 -1 -2 -2 -1 -4 -2 -3 -1 -2 -2 -3 -3 -4 -5 -6 -6 -5